[[{"header":{"parameterUnit":"m.s-1","parameterCategory":1,"la1":30.2991,"la2":30.254,"lo1":-89.0895,"lo2":-89.0444,"dy":0.0017,"dx":0.0017,"nx":28,"ny":28,"refTime":"2023-09-01T09:00:00:Z","depth":0,"parameterNumber":2,"parameterNumberName":"U-component_of_WINDS"},"data":[0,0,0,0,0,0,0,0,0,0,0,0,0,0,0,0,0,0,0,0,0,0,0,0,0,0,0,0,0,0,0,0,0,0,0,0,0,0,0,0,0,0,0,0,0,0,0,0,0,0,0,0,0,0,0,0,0,0,-1.7735,-1.7734,0,-1.7666,-1.7665,-1.7665,-1.7642,-1.7643,-1.7643,-1.7643,-1.7571,-1.7569,-1.7567,0,0,0,0,0,0,0,0,0,0,0,0,0,-1.7846,-1.7844,-1.7735,-1.7734,-1.7733,-1.7666,-1.7665,-1.7664,-1.7642,-1.7643,-1.7643,-1.7643,-1.7572,-1.7569,-1.7566,0,0,0,0,0,0,0,0,0,0,0,0,0,-1.779,-1.7844,-1.7735,-1.7714,-1.7712,-1.7666,-1.7665,-1.7664,-1.7642,-1.7643,-1.7643,-1.7644,-1.7573,-1.7569,-1.7566,-1.7536,0,0,-1.7556,-1.7554,0,0,0,0,0,0,0,0,-1.7793,-1.7786,-1.7718,-1.7716,-1.7713,-1.7663,-1.7678,-1.7621,-1.7642,-1.7669,-1.7643,-1.7644,-1.7601,-1.7596,-1.7582,-1.7533,-1.753,-1.7556,-1.7554,-1.7552,-1.7551,0,0,0,0,0,0,0,-1.7797,-1.7788,-1.7708,-1.7717,-1.7714,-1.7708,-1.77,-1.7667,-1.7633,-1.7666,-1.7665,-1.7657,-1.76,-1.7585,-1.758,-1.7529,-1.7556,-1.7553,-1.7551,-1.7549,-1.7452,-1.7451,0,0,0,0,0,0,-1.7805,-1.7792,-1.771,-1.7706,-1.7755,-1.7706,-1.7697,-1.7679,-1.7633,-1.7627,-1.7656,-1.7656,-1.759,-1.7584,-1.7577,-1.7539,-1.7552,-1.7549,-1.7547,-1.7453,-1.7452,-1.7451,0,0,0,0,0,0,-1.7807,-1.7797,-1.7713,-1.7748,-1.7737,-1.7703,-1.7683,-1.7677,-1.7662,-1.7626,-1.762,-1.7647,-1.759,-1.7582,-1.7547,-1.7536,-1.7548,-1.7545,-1.7453,-1.7452,-1.7452,-1.7462,0,0,0,0,0,0,-1.781,-1.7798,-1.7787,-1.7748,-1.7735,-1.7684,-1.7682,-1.7675,-1.7657,-1.7655,-1.7616,-1.761,-1.759,-1.7552,-1.7543,-1.7531,-1.7542,-1.7454,-1.7453,-1.7452,-1.7462,-1.7461,-1.7461,0,0,0,0,0,-1.7814,-1.7792,-1.7786,-1.7776,-1.772,-1.7683,-1.7675,-1.7654,-1.7656,-1.7644,-1.7621,-1.7611,-1.7539,-1.7548,-1.7539,-1.7526,-1.7455,-1.7453,-1.7452,-1.7462,-1.7461,-1.7461,0,0,0,0,0,0,-1.7829,-1.7786,-1.778,-1.7744,-1.7718,-1.7679,-1.7663,-1.7653,-1.7625,-1.7625,-1.7599,-1.759,-1.7557,-1.7538,-1.7549,-1.7495,-1.7496,-1.7493,-1.7508,-1.7506,-1.7506,-1.751,-1.7539,0,0,0,0,0,-1.7828,-1.7802,-1.7766,-1.7738,-1.7726,-1.7697,-1.768,-1.7666,-1.7637,-1.7625,-1.7599,-1.7571,-1.7542,-1.7524,-1.7495,-1.746,-1.7451,-1.7447,-1.7446,-1.7445,-1.7442,-1.7422,-1.742,-1.7447,-1.7447,-1.7447,0,0,-1.7826,-1.78,-1.7784,-1.7741,-1.7718,-1.7692,-1.7687,-1.7659,-1.7639,-1.7621,-1.7586,-1.7566,-1.7533,-1.7498,-1.7481,-1.7481,-1.7433,-1.7444,-1.7444,-1.744,-1.7421,-1.7418,-1.7416,-1.7446,-1.7446,-1.7446,0,0,-1.7808,-1.7786,-1.776,-1.7738,-1.7705,-1.7686,-1.768,-1.7644,-1.763,-1.7595,-1.7581,-1.7557,-1.7508,-1.7485,-1.7467,-1.7442,-1.7432,-1.7434,-1.7429,-1.7409,-1.7407,-1.7405,-1.7396,-1.7393,-1.7431,-1.7431,-1.7431,0,-1.7808,-1.7768,-1.7748,-1.772,-1.7701,-1.7686,-1.7659,-1.7639,-1.7597,-1.7585,-1.7586,-1.7524,-1.75,-1.746,-1.7454,-1.744,-1.7432,-1.7437,-1.7409,-1.7407,-1.7405,-1.7395,-1.7392,-1.7431,-1.7431,-1.7431,-1.7431,0,-1.7771,-1.7743,-1.7726,-1.7688,-1.7667,-1.764,-1.7616,-1.7597,-1.7586,-1.7567,-1.7532,-1.7504,-1.7469,-1.7459,-1.7447,-1.7417,-1.7418,-1.7415,-1.7415,-1.7403,-1.7394,-1.739,-1.7432,-1.7432,-1.7432,-1.7432,0,0,-1.7757,-1.7709,-1.7703,-1.7686,-1.7649,-1.7627,-1.76,-1.7567,-1.7551,-1.7524,-1.75,-1.746,-1.7457,-1.7437,-1.7422,-1.7406,-1.7388,-1.7405,-1.7403,-1.7401,-1.7352,-1.7353,-1.7349,-1.7382,-1.7381,-1.738,-1.7354,0,-1.7733,-1.7684,-1.7666,-1.7625,-1.7599,-1.7585,-1.7561,-1.7536,-1.7519,-1.7494,-1.7474,-1.7446,-1.7445,-1.7432,-1.7415,-1.7393,-1.7377,-1.7395,-1.7358,-1.7357,-1.7365,-1.7345,-1.7346,-1.7322,-1.7351,-1.735,-1.735,0,-1.7697,-1.7671,-1.7628,-1.7595,-1.7584,-1.7563,-1.7532,-1.7508,-1.748,-1.7468,-1.7447,-1.7434,-1.7405,-1.741,-1.7369,-1.7382,-1.7366,-1.7353,-1.7352,-1.7346,-1.7351,-1.7337,-1.7314,-1.731,-1.7344,-1.7344,-1.7345,0,-1.769,-1.7644,-1.7612,-1.7598,-1.7559,-1.7545,-1.7528,-1.75,-1.7482,-1.7455,-1.7443,-1.7413,-1.7396,-1.7373,-1.7352,-1.7358,-1.7313,-1.7316,-1.7302,-1.7303,-1.7291,-1.7292,-1.7264,-1.7284,-1.7285,-1.7285,-1.7285,0,-1.7664,-1.7638,-1.7609,-1.7589,-1.756,-1.754,-1.7511,-1.7494,-1.7469,-1.7446,-1.7432,-1.741,-1.7386,-1.7361,-1.7345,-1.7313,-1.7306,-1.7295,-1.7291,-1.7295,-1.7296,-1.7283,-1.7283,-1.7284,-1.7284,-1.7284,-1.7284,0,-1.7649,-1.7629,-1.7594,-1.7561,-1.7552,-1.7532,-1.7503,-1.7484,-1.7467,-1.7437,-1.7429,-1.7402,-1.7372,-1.735,-1.7311,-1.7301,-1.7267,-1.7263,-1.7276,-1.7274,-1.726,-1.7261,-1.7221,-1.7215,-1.7241,-1.7241,-1.7241,0,-1.7633,-1.7613,-1.7579,-1.7562,-1.7546,-1.752,-1.7501,-1.7482,-1.7463,-1.743,-1.7414,-1.7384,-1.7358,-1.7311,-1.7287,-1.7258,-1.7252,-1.7241,-1.7248,-1.7253,-1.7251,-1.7251,-1.7249,-1.7239,-1.7239,-1.7239,-1.7239,0,-1.7605,-1.7597,-1.7571,-1.7543,-1.7521,-1.7498,-1.7474,-1.7461,-1.7437,-1.7417,-1.7387,-1.7367,-1.7328,-1.7298,-1.7266,-1.7248,-1.7239,-1.7237,-1.7232,-1.7235,-1.7243,-1.7237,-1.7272,-1.7237,-1.7237,-1.7238,-1.7238,-1.7238,-1.7588,-1.757,-1.7543,-1.7515,-1.7496,-1.7474,-1.7454,-1.7435,-1.741,-1.7377,-1.7367,-1.7336,-1.7309,-1.7266,-1.7248,-1.7223,-1.7223,-1.7216,-1.7214,-1.7212,-1.7211,-1.7249,-1.7217,-1.7217,-1.7217,-1.7217,-1.7217,0,-1.7559,-1.7541,-1.7516,-1.7484,-1.7462,-1.7457,-1.7431,-1.7413,-1.7385,-1.7361,-1.7337,-1.7303,-1.7274,-1.7249,-1.7219,-1.7204,-1.7199,-1.7196,-1.7196,-1.7192,-1.7214,-1.722,-1.7201,-1.7201,-1.7201,-1.7201,-1.7201,-1.7201,-1.754,-1.7509,-1.7498,-1.7456,-1.7439,-1.7409,-1.7394,-1.7374,-1.7355,-1.7317,-1.7293,-1.7278,-1.7254,-1.7222,-1.7196,-1.7189,-1.7178,-1.7176,-1.7169,-1.7189,-1.719,-1.7192,-1.7198,-1.7174,-1.7174,-1.7149,-1.7148,-1.7148]},{"header":{"parameterUnit":"m.s-1","parameterCategory":1,"la1":30.2991,"la2":30.254,"lo1":-89.0895,"lo2":-89.0444,"dy":0.0017,"dx":0.0017,"nx":28,"ny":28,"refTime":"2023-09-01T09:00:00:Z","depth":0,"parameterNumber":3,"parameterNumberName":"V-component_of_WINDS"},"data":[0,0,0,0,0,0,0,0,0,0,0,0,0,0,0,0,0,0,0,0,0,0,0,0,0,0,0,0,0,0,0,0,0,0,0,0,0,0,0,0,0,0,0,0,0,0,0,0,0,0,0,0,0,0,0,0,0,0,1.3171,1.3171,0,1.312,1.312,1.3119,1.3051,1.305,1.3049,1.3048,1.2998,1.2998,1.2998,0,0,0,0,0,0,0,0,0,0,0,0,0,1.3213,1.3213,1.3172,1.3171,1.317,1.312,1.312,1.3119,1.3051,1.305,1.3049,1.3047,1.2998,1.2998,1.2998,0,0,0,0,0,0,0,0,0,0,0,0,0,1.3182,1.3213,1.3172,1.313,1.3126,1.3121,1.312,1.3119,1.3052,1.305,1.3048,1.3047,1.2999,1.2998,1.2998,1.3029,0,0,1.2997,1.2996,0,0,0,0,0,0,0,0,1.3184,1.3181,1.3137,1.3133,1.3129,1.309,1.3116,1.3089,1.3052,1.308,1.3048,1.3046,1.3031,1.3027,1.3022,1.3027,1.3025,1.2996,1.2996,1.2996,1.2996,0,0,0,0,0,0,0,1.3186,1.3183,1.3151,1.3137,1.3131,1.3115,1.3109,1.3111,1.3066,1.3078,1.3072,1.3067,1.3028,1.3022,1.302,1.3024,1.2997,1.2996,1.2996,1.2996,1.3053,1.3055,0,0,0,0,0,0,1.3194,1.3185,1.3153,1.315,1.3153,1.3116,1.3109,1.3104,1.3065,1.3058,1.3069,1.3064,1.3024,1.3021,1.3018,1.3053,1.2996,1.2996,1.2995,1.3052,1.3054,1.3056,0,0,0,0,0,0,1.3195,1.3192,1.3155,1.3166,1.316,1.3117,1.3113,1.3104,1.3098,1.3059,1.305,1.3071,1.3022,1.3019,1.3027,1.305,1.2996,1.2995,1.305,1.3052,1.3055,1.3122,0,0,0,0,0,0,1.3197,1.3193,1.3204,1.3167,1.316,1.3164,1.3114,1.3105,1.3098,1.3091,1.3059,1.3052,1.3021,1.3028,1.3027,1.3048,1.2995,1.3047,1.3051,1.3054,1.3118,1.3127,1.3135,0,0,0,0,0,1.3199,1.3225,1.3204,1.3201,1.3172,1.3166,1.3162,1.3125,1.31,1.3111,1.3085,1.3053,1.3048,1.3029,1.3027,1.3049,1.3046,1.305,1.3054,1.3114,1.3125,1.3134,0,0,0,0,0,0,1.3267,1.3219,1.3196,1.3211,1.3193,1.3154,1.3167,1.3138,1.3126,1.3121,1.3077,1.307,1.3084,1.3067,1.3048,1.3078,1.3042,1.3046,1.3088,1.3099,1.3107,1.3111,1.2995,0,0,0,0,0,1.3283,1.3281,1.324,1.3257,1.3249,1.321,1.3206,1.3179,1.3158,1.315,1.3125,1.3108,1.3102,1.3099,1.3092,1.3115,1.3107,1.3129,1.3138,1.3145,1.3149,1.316,1.317,1.3069,1.3069,1.3069,0,0,1.3318,1.3292,1.3293,1.327,1.3253,1.3253,1.3204,1.3205,1.3205,1.3151,1.3157,1.3139,1.3116,1.3132,1.3138,1.3118,1.3175,1.315,1.3156,1.3156,1.3165,1.3175,1.3184,1.3072,1.3071,1.3071,0,0,1.338,1.336,1.3372,1.3356,1.333,1.3304,1.3307,1.3273,1.3258,1.3263,1.3223,1.3223,1.3214,1.3199,1.3191,1.3249,1.3219,1.3248,1.3292,1.3304,1.3312,1.3319,1.334,1.3348,1.3252,1.3252,1.3252,0,1.3427,1.3423,1.3383,1.3387,1.3379,1.3329,1.3342,1.3328,1.3302,1.3298,1.3276,1.3265,1.3246,1.3258,1.3272,1.3267,1.327,1.3251,1.3314,1.332,1.3326,1.3346,1.3354,1.3256,1.3255,1.3255,1.3255,0,1.3482,1.3481,1.3494,1.3469,1.3462,1.3471,1.3432,1.3431,1.3405,1.3381,1.3388,1.3364,1.3351,1.3352,1.3326,1.3361,1.335,1.3322,1.3285,1.334,1.3358,1.3365,1.3261,1.326,1.3259,1.3258,0,0,1.3586,1.3538,1.3544,1.3532,1.35,1.3499,1.3506,1.3493,1.3492,1.3476,1.3481,1.3475,1.3449,1.344,1.3413,1.3423,1.3472,1.3394,1.3393,1.341,1.3509,1.353,1.354,1.3452,1.3453,1.3454,1.3511,0,1.3643,1.365,1.3615,1.3632,1.3631,1.3585,1.3591,1.3573,1.3551,1.3548,1.3524,1.352,1.3486,1.348,1.3489,1.3464,1.3491,1.3459,1.3457,1.3457,1.3464,1.3549,1.3571,1.3626,1.3518,1.3519,1.3519,0,1.371,1.3696,1.3714,1.3682,1.368,1.3686,1.3672,1.3669,1.3648,1.3631,1.3621,1.359,1.3595,1.3559,1.3567,1.3546,1.3543,1.3531,1.3532,1.3531,1.3492,1.355,1.3643,1.3651,1.353,1.3529,1.3528,0,1.3784,1.3771,1.378,1.3771,1.3734,1.3739,1.3724,1.3701,1.3696,1.3683,1.368,1.3668,1.3662,1.3655,1.3622,1.3599,1.3634,1.3595,1.3621,1.3622,1.363,1.363,1.3724,1.3628,1.3628,1.3628,1.3628,0,1.3851,1.3864,1.3813,1.3819,1.3832,1.3791,1.3806,1.3786,1.3766,1.3768,1.3727,1.373,1.3686,1.3684,1.3658,1.3669,1.3666,1.3654,1.3647,1.3658,1.3659,1.3655,1.3651,1.363,1.3629,1.3629,1.3629,0,1.3937,1.3903,1.391,1.3874,1.3865,1.3877,1.3846,1.3851,1.3827,1.3829,1.3828,1.379,1.3786,1.3752,1.374,1.3723,1.3744,1.3729,1.3751,1.3746,1.3774,1.3772,1.3869,1.388,1.3777,1.3778,1.3779,0,1.3982,1.3991,1.3956,1.3954,1.3941,1.3938,1.3932,1.3893,1.3888,1.3865,1.3873,1.3865,1.3857,1.3852,1.3825,1.3816,1.3801,1.3836,1.38,1.381,1.3802,1.3803,1.3804,1.3844,1.3845,1.3846,1.3847,0,1.4067,1.405,1.4042,1.403,1.4024,1.4012,1.3998,1.3999,1.3955,1.3953,1.3948,1.3941,1.3929,1.3923,1.3909,1.3894,1.3864,1.3858,1.3864,1.3875,1.3888,1.3882,1.3772,1.3856,1.3855,1.3855,1.3854,1.3854,1.4134,1.414,1.4116,1.411,1.4095,1.4083,1.4085,1.4061,1.4056,1.4043,1.402,1.4019,1.3998,1.3976,1.3964,1.3963,1.3945,1.3953,1.3955,1.3958,1.3964,1.3888,1.3961,1.396,1.396,1.396,1.3959,0,1.4217,1.4199,1.4194,1.4175,1.4171,1.4142,1.4125,1.4123,1.4122,1.4105,1.4098,1.4092,1.4086,1.4058,1.4048,1.4053,1.4039,1.4052,1.4052,1.4049,1.398,1.3977,1.4064,1.4064,1.4064,1.4064,1.4064,1.4064,1.4259,1.4268,1.4248,1.425,1.4232,1.423,1.4223,1.4212,1.4198,1.4194,1.4188,1.417,1.4149,1.4137,1.4131,1.4122,1.4121,1.4139,1.4127,1.4064,1.4054,1.4044,1.404,1.4139,1.4139,1.4195,1.4196,1.4196]}]]